FW1929 Weather Reports


Display with metric or nautical units.
time (UTC)temp
F
wind
direction
speed
MPH
gust
MPH
rain 1hr
in
rain 24hr
in
rain mn
in
humidity
%
barometer
mb
20260507040025 30 8 4.0 6.0 0.00 0.18 0.18 92 1030.6
20260507034621 29 4 1.0 6.0 0.00 0.18 0.18 92 1030.7
20260507033044 29 4 2.0 4.0 0.00 0.18 0.18 92 1030.6
20260507031625 29 4 0.0 3.0 0.00 0.18 0.18 92 1030.5
20260507030035 29 4 3.0 5.0 0.00 0.18 0.18 92 1030.3
20260507024613 28 4 1.0 4.0 0.00 0.19 0.18 92 1030.2
20260507023034 28 4 4.0 5.0 0.00 0.19 0.18 93 1030.0
20260507021543 28 8 2.0 4.0 0.00 0.19 0.18 92 1030.1
20260507020120 28 4 1.0 3.0 0.00 0.19 0.18 92 1030.0
20260507014541 29 4 0.0 0.0 0.00 0.21 0.18 92 1030.0
20260507013130 29 4 1.0 2.0 0.00 0.21 0.18 92 1030.2
20260507011540 29 4 0.0 3.0 0.01 0.21 0.18 92 1030.4
20260507010121 30 4 1.0 4.0 0.01 0.21 0.18 92 1030.2
20260507004536 30 4 0.0 4.0 0.02 0.24 0.18 92 1030.1
20260507003128 30 4 2.0 4.0 0.02 0.24 0.18 92 1030.2
20260507001551 30 4 0.0 2.0 0.02 0.23 0.17 92 1030.4
20260507000013 30 4 0.0 3.0 0.03 0.23 0.17 92 1030.4
20260506234627 30 4 1.0 5.0 0.03 0.25 0.16 92 1030.3
20260506233027 30 4 0.0 0.0 0.03 0.24 0.15 92 1030.3
20260506231619 30 4 0.0 1.0 0.04 0.24 0.15 92 1030.0
20260506230034 30 4 1.0 4.0 0.04 0.23 0.14 92 1029.6
20260506224625 30 4 0.0 5.0 0.04 0.22 0.13 92 1029.6
20260506223040 30 4 2.0 6.0 0.04 0.21 0.12 92 1029.4
20260506221631 30 4 4.0 8.0 0.04 0.20 0.11 93 1029.4
20260506220052 30 4 6.0 11.0 0.04 0.19 0.10 93 1029.1
20260506214508 30 4 4.0 10.0 0.02 0.17 0.08 93 1029.2
20260506213107 30 4 4.0 10.0 0.03 0.17 0.08 93 1029.0
20260506211516 29 4 7.0 13.0 0.03 0.16 0.07 93 1029.0
20260506210111 30 4 4.0 10.0 0.02 0.15 0.06 93 1029.1
20260506204547 29 4 5.0 11.0 0.02 0.15 0.06 93 1029.0
20260506203129 29 4 7.0 13.0 0.02 0.14 0.05 93 1028.5
20260506201544 29 4 9.0 14.0 0.01 0.13 0.04 93 1028.3
20260506200011 28 4 6.0 10.0 0.01 0.13 0.04 93 1028.3
20260506194622 27 4 5.0 11.0 0.01 0.13 0.04 93 1028.4
20260506193018 27 4 9.0 14.0 0.00 0.12 0.03 93 1028.2
20260506191611 27 359 6.0 13.0 0.00 0.12 0.03 93 1028.4
20260506190026 27 4 8.0 13.0 0.00 0.12 0.03 93 1027.5
20260506184624 27 4 9.0 15.0 0.00 0.12 0.03 93 1027.5
20260506183100 27 8 11.0 19.0 0.01 0.12 0.03 93 1027.3
20260506181509 27 4 13.0 20.0 0.01 0.12 0.03 93 1027.0
20260506180056 27 4 15.0 22.0 0.02 0.12 0.03 93 1026.6
20260506174508 28 4 13.0 21.0 0.02 0.12 0.03 92 1026.4
20260506173112 28 4 11.0 19.0 0.02 0.11 0.02 92 1026.6
20260506171533 28 4 11.0 17.0 0.02 0.11 0.02 92 1026.6
20260506170116 28 8 9.0 15.0 0.01 0.10 0.01 92 1026.0
20260506164531 29 4 7.0 10.0 0.01 0.10 0.01 92 1025.8
20260506163122 29 4 3.0 10.0 0.00 0.09 0.00 92 1025.5
20260506161538 29 8 8.0 11.0 0.00 0.09 0.00 92 1025.4
20260506160104 28 10 6.0 13.0 0.00 0.09 0.00 92 1025.2
20260506154512 28 4 7.0 13.0 0.00 0.09 0.00 92 1025.1
20260506153045 28 4 4.0 9.0 0.00 0.09 0.00 93 1024.9
20260506151559 27 8 8.0 12.0 0.00 0.09 0.00 92 1024.9
20260506150040 27 8 8.0 13.0 0.00 0.09 0.00 92 1025.0
20260506144539 27 4 7.0 17.0 0.00 0.09 0.00 92 1024.7
20260506143045 27 4 12.0 19.0 0.00 0.09 0.00 92 1024.6
20260506141533 27 4 14.0 21.0 0.00 0.09 0.00 92 1024.1
20260506140036 27 359 13.0 22.0 0.00 0.09 0.00 92 1023.9
20260506134528 27 4 12.0 20.0 0.00 0.09 0.00 92 1023.8
20260506133027 27 4 11.0 20.0 0.00 0.09 0.00 92 1023.5
20260506131526 27 4 14.0 22.0 0.00 0.09 0.00 91 1023.3
20260506130018 28 4 10.0 16.0 0.00 0.09 0.00 91 1022.8
20260506124515 28 4 7.0 13.0 0.00 0.09 0.00 91 1022.2
20260506123012 28 8 5.0 16.0 0.00 0.09 0.00 91 1022.1
20260506121509 28 4 0.0 0.0 0.00 0.09 0.00 91 1021.9
20260506120007 28 4 0.0 0.0 0.00 0.09 0.00 92 1021.5
20260506114505 28 4 0.0 0.0 0.00 0.09 0.00 92 1021.3
20260506113104 28 4 0.0 0.0 0.00 0.09 0.00 92 1021.0
20260506111517 28 4 0.0 0.0 0.00 0.09 0.00 92 1021.1
20260506110109 28 4 0.0 0.0 0.00 0.09 0.00 92 1021.1
20260506104528 29 8 0.0 0.0 0.00 0.09 0.00 92 1020.9
20260506103115 29 4 0.0 0.0 0.00 0.09 0.00 92 1020.7
20260506101546 29 8 0.0 0.0 0.00 0.09 0.00 92 1020.7
20260506100132 29 8 0.0 0.0 0.00 0.09 0.00 92 1020.6
20260506094553 29 4 0.0 0.0 0.00 0.09 0.00 92 1020.6
20260506093014 29 4 0.0 0.0 0.00 0.09 0.00 92 1020.4
20260506091611 29 8 0.0 0.0 0.00 0.09 0.00 92 1020.2
20260506090028 30 4 0.0 0.0 0.00 0.09 0.00 92 1020.1
20260506084621 30 4 0.0 0.0 0.00 0.09 0.00 92 1020.0
20260506083026 30 8 0.0 0.0 0.00 0.09 0.00 92 1019.8
20260506081621 30 8 0.0 0.0 0.00 0.09 0.00 92 1019.8
20260506073107 30 4 0.0 0.0 0.00 0.09 0.00 92 1019.7
20260506071525 30 8 0.0 0.0 0.00 0.09 0.00 92 1019.7
20260506070119 30 4 0.0 0.0 0.00 0.09 0.00 92 1019.6
20260506061543 31 8 0.0 0.0 0.00 0.09 0.00 91 1019.6
20260506044626 32 8 0.0 8.0 0.00 0.09 0.09 91 1019.0
20260506043047 32 4 3.0 6.0 0.00 0.09 0.09 91 1018.6
20260506041513 32 9 3.0 6.0 0.00 0.09 0.09 91 1018.2